When you browse on this site, cookies collect data to enhance your experience and personalize the content and advertising you see.
Visit our Privacy Policy to learn more. By continuing to use the site, you agree to this use of cookies and data.
  • In Hungary
  • List of Countries
  • For 7 days
  • Water Temperature
  • Weather Map
  • News
  • Weather Widgets
  • user-avatar
    Login

    Hourly Weather Muza

    Today, 20 October, Sunday

    Time Temperature Precipitation Wind Pressure Humidity
    00:00 +4°C° 0 mm 2 mps 761 mmHg 88%
    01:00 +3°C° 0 mm 3 mps 761 mmHg 89%
    02:00 +3°C° 0 mm 3 mps 761 mmHg 90%
    03:00 +3°C° 0 mm 3 mps 761 mmHg 91%
    04:00 +3°C° 0 mm 3 mps 761 mmHg 92%
    05:00 +3°C° 0 mm 3 mps 761 mmHg 93%
    06:00 +3°C° 0 mm 3 mps 761 mmHg 93%
    07:00 +3°C° 0 mm 3 mps 760 mmHg 92%
    08:00 +4°C° 0 mm 4 mps 760 mmHg 90%
    09:00 +5°C° 0 mm 4 mps 760 mmHg 88%
    10:00 +6°C° 0.3 mm 4 mps 760 mmHg 89%
    11:00 +6°C° 0.3 mm 4 mps 759 mmHg 90%
    12:00 +6°C° 0.3 mm 4 mps 759 mmHg 91%
    13:00 +7°C° 1.4 mm 4 mps 759 mmHg 92%
    14:00 +7°C° 1.4 mm 4 mps 759 mmHg 94%
    15:00 +8°C° 1.4 mm 4 mps 759 mmHg 95%
    16:00 +9°C° 0.2 mm 3 mps 759 mmHg 95%
    17:00 +9°C° 0.2 mm 3 mps 758 mmHg 95%
    18:00 +10°C° 0.2 mm 3 mps 758 mmHg 95%
    19:00 +10°C° 0.1 mm 3 mps 758 mmHg 95%
    20:00 +10°C° 0.1 mm 3 mps 758 mmHg 96%
    21:00 +10°C° 0.1 mm 3 mps 758 mmHg 96%
    22:00 +10°C° 0.1 mm 3 mps 758 mmHg 96%
    23:00 +10°C° 0.1 mm 3 mps 758 mmHg 96%

    Tomorrow, 21 October, Monday

    Time Temperature Precipitation Wind Pressure Humidity
    00:00 +10°C° 0.1 mm 3 mps 758 mmHg 96%
    01:00 +10°C° 0 mm 2 mps 758 mmHg 96%
    02:00 +10°C° 0 mm 2 mps 758 mmHg 96%
    03:00 +10°C° 0 mm 2 mps 758 mmHg 97%
    04:00 +9°C° 0 mm 2 mps 757 mmHg 97%
    05:00 +9°C° 0 mm 2 mps 757 mmHg 97%
    06:00 +9°C° 0 mm 2 mps 757 mmHg 97%
    07:00 +9°C° 0 mm 3 mps 756 mmHg 95%
    08:00 +10°C° 0 mm 3 mps 756 mmHg 93%
    09:00 +11°C° 0 mm 3 mps 756 mmHg 91%
    10:00 +11°C° 0 mm 4 mps 755 mmHg 88%
    11:00 +12°C° 0 mm 4 mps 755 mmHg 85%
    12:00 +13°C° 0 mm 5 mps 754 mmHg 82%
    13:00 +13°C° 0 mm 5 mps 754 mmHg 80%
    14:00 +13°C° 0 mm 5 mps 753 mmHg 79%
    15:00 +13°C° 0 mm 6 mps 753 mmHg 77%
    16:00 +13°C° 0.1 mm 6 mps 752 mmHg 78%
    17:00 +13°C° 0.1 mm 6 mps 752 mmHg 79%
    18:00 +13°C° 0.1 mm 6 mps 751 mmHg 80%
    19:00 +12°C° 0.7 mm 5 mps 751 mmHg 82%
    20:00 +12°C° 0.7 mm 4 mps 751 mmHg 83%
    21:00 +12°C° 0.7 mm 3 mps 751 mmHg 85%
    22:00 +11°C° 0 mm 3 mps 752 mmHg 85%
    23:00 +10°C° 0 mm 4 mps 752 mmHg 86%

    Day after tomorrow, 22 October, Tuesday

    Time Temperature Precipitation Wind Pressure Humidity
    00:00 +8°C° 0 mm 4 mps 753 mmHg 86%
    01:00 +8°C° 0 mm 3 mps 753 mmHg 87%
    02:00 +7°C° 0 mm 3 mps 754 mmHg 87%
    03:00 +7°C° 0 mm 3 mps 754 mmHg 88%
    04:00 +5°C° 0 mm 3 mps 755 mmHg 88%
    05:00 +5°C° 0 mm 2 mps 755 mmHg 89%
    06:00 +5°C° 0 mm 2 mps 756 mmHg 89%
    07:00 +4°C° 0 mm 3 mps 756 mmHg 86%
    08:00 +4°C° 0 mm 3 mps 756 mmHg 83%
    09:00 +5°C° 0 mm 3 mps 757 mmHg 80%
    10:00 +5°C° 0 mm 3 mps 757 mmHg 76%
    11:00 +7°C° 0 mm 3 mps 757 mmHg 72%
    12:00 +7°C° 0 mm 3 mps 758 mmHg 68%
    13:00 +7°C° 0 mm 3 mps 758 mmHg 69%
    14:00 +7°C° 0 mm 3 mps 758 mmHg 70%
    15:00 +7°C° 0 mm 3 mps 758 mmHg 71%
    16:00 +6°C° 0 mm 2 mps 758 mmHg 73%
    17:00 +6°C° 0 mm 2 mps 758 mmHg 76%
    18:00 +7°C° 0 mm 1 mps 759 mmHg 79%
    19:00 +7°C° 0 mm 1 mps 759 mmHg 83%
    20:00 +6°C° 0 mm 1 mps 759 mmHg 86%
    21:00 +6°C° 0 mm 1 mps 758 mmHg 89%
    22:00 +5°C° 0 mm 1 mps 758 mmHg 90%
    23:00 +5°C° 0 mm 1 mps 758 mmHg 92%

    23 October, Wednesday

    Time Temperature Precipitation Wind Pressure Humidity
    00:00 +4°C° 0 mm 1 mps 758 mmHg 93%
    01:00 +4°C° 0 mm 1 mps 758 mmHg 92%
    02:00 +4°C° 0 mm 1 mps 758 mmHg 91%
    03:00 +4°C° 0 mm 1 mps 758 mmHg 90%
    04:00 +3°C° 0 mm 2 mps 757 mmHg 91%
    05:00 +3°C° 0 mm 2 mps 757 mmHg 92%
    06:00 +4°C° 0 mm 2 mps 756 mmHg 93%
    07:00 +3°C° 0.1 mm 3 mps 755 mmHg 90%
    08:00 +4°C° 0.1 mm 3 mps 755 mmHg 88%
    09:00 +5°C° 0.1 mm 4 mps 754 mmHg 85%
    10:00 +6°C° 0.3 mm 4 mps 754 mmHg 84%
    11:00 +7°C° 0.3 mm 4 mps 753 mmHg 83%
    12:00 +7°C° 0.3 mm 5 mps 753 mmHg 82%
    13:00 +8°C° 0 mm 5 mps 753 mmHg 82%
    14:00 +10°C° 0 mm 4 mps 752 mmHg 82%
    15:00 +11°C° 0 mm 4 mps 752 mmHg 82%
    16:00 +11°C° 0 mm 4 mps 752 mmHg 85%
    17:00 +11°C° 0 mm 4 mps 752 mmHg 87%
    18:00 +11°C° 0 mm 4 mps 752 mmHg 90%
    19:00 +11°C° 0 mm 4 mps 752 mmHg 90%
    20:00 +11°C° 0 mm 3 mps 752 mmHg 90%
    21:00 +11°C° 0 mm 3 mps 752 mmHg 91%
    22:00 +10°C° 0 mm 3 mps 752 mmHg 92%
    23:00 +10°C° 0 mm 3 mps 752 mmHg 92%

    24 October, Thursday

    Time Temperature Precipitation Wind Pressure Humidity
    00:00 +9°C° 0 mm 3 mps 752 mmHg 93%
    01:00 +9°C° 0 mm 2 mps 752 mmHg 94%
    02:00 +8°C° 0 mm 2 mps 752 mmHg 94%
    03:00 +8°C° 0 mm 2 mps 753 mmHg 95%
    04:00 +7°C° 0 mm 2 mps 753 mmHg 96%
    05:00 +7°C° 0 mm 2 mps 753 mmHg 97%
    06:00 +6°C° 0 mm 2 mps 753 mmHg 97%
    07:00 +7°C° 0 mm 2 mps 753 mmHg 95%
    08:00 +7°C° 0 mm 2 mps 754 mmHg 93%
    09:00 +8°C° 0 mm 2 mps 754 mmHg 92%
    10:00 +9°C° 0 mm 2 mps 754 mmHg 87%
    11:00 +9°C° 0 mm 2 mps 755 mmHg 83%
    12:00 +10°C° 0 mm 2 mps 755 mmHg 78%
    13:00 +11°C° 0 mm 1 mps 755 mmHg 78%
    14:00 +11°C° 0 mm 1 mps 755 mmHg 78%
    15:00 +11°C° 0 mm 1 mps 755 mmHg 78%
    16:00 +10°C° 0 mm 1 mps 756 mmHg 83%
    17:00 +9°C° 0 mm 1 mps 756 mmHg 87%
    18:00 +8°C° 0 mm 1 mps 756 mmHg 92%
    19:00 +8°C° 0 mm 1 mps 756 mmHg 92%
    20:00 +6°C° 0 mm 0 mps 757 mmHg 93%
    21:00 +6°C° 0 mm 0 mps 757 mmHg 93%
    22:00 +6°C° 0 mm 0 mps 757 mmHg 93%
    23:00 +7°C° 0 mm 1 mps 757 mmHg 93%

    25 October, Friday

    Time Temperature Precipitation Wind Pressure Humidity
    00:00 +6°C° 0 mm 1 mps 757 mmHg 93%
    01:00 +6°C° 0 mm 1 mps 757 mmHg 94%
    02:00 +6°C° 0 mm 1 mps 757 mmHg 94%
    03:00 +6°C° 0 mm 1 mps 757 mmHg 94%
    04:00 +6°C° 0 mm 1 mps 757 mmHg 95%
    05:00 +6°C° 0 mm 1 mps 757 mmHg 95%
    06:00 +6°C° 0 mm 1 mps 756 mmHg 96%
    07:00 +6°C° 0 mm 2 mps 757 mmHg 94%
    08:00 +7°C° 0 mm 2 mps 757 mmHg 92%
    09:00 +7°C° 0 mm 2 mps 757 mmHg 90%
    10:00 +8°C° 0 mm 2 mps 757 mmHg 85%
    11:00 +9°C° 0 mm 2 mps 757 mmHg 81%
    12:00 +10°C° 0 mm 3 mps 757 mmHg 77%
    13:00 +10°C° 0 mm 2 mps 757 mmHg 77%
    14:00 +10°C° 0 mm 2 mps 757 mmHg 77%
    15:00 +10°C° 0 mm 2 mps 757 mmHg 78%
    16:00 +9°C° 0 mm 2 mps 757 mmHg 82%
    17:00 +8°C° 0 mm 2 mps 757 mmHg 87%
    18:00 +7°C° 0 mm 2 mps 757 mmHg 91%
    19:00 +7°C° 0 mm 2 mps 757 mmHg 93%
    20:00 +6°C° 0 mm 2 mps 757 mmHg 94%
    21:00 +7°C° 0 mm 1 mps 757 mmHg 95%
    22:00 +6°C° 0 mm 2 mps 757 mmHg 95%
    23:00 +6°C° 0 mm 2 mps 757 mmHg 95%
    Show more